Back to catalog

STARLINK-5963

AliveCommunicationsVLEO
NORAD 56780·PAYLOAD·🇺🇸 United States

Launched May 31, 2023 from Vandenberg Space Force Base

Loading…

Next Passes (next 24 hours)

TLE

FreshSource: CelesTrak SupGP

Epoch: Sep 14, 2026, 13:25 UTC

1 56780C 23078P   26257.55951389 -.00053235  00000+0 -44617-2 0  2573
2 56780  70.0010 228.0418 0003568 270.7519 199.9033 14.98353009    11

Track STARLINK-5963 in real time with AllMySat

Download on the App Store